Overview Statistics Trail Chart Weather Telemetry Raw packets
 

This is the latest recevied weather packets stored in our database for station/object N1ORT. If no packets are shown the sender has not sent any weather packets the latest 10 day(s).

<< 89 90 91 92 93 94 95 >>
Time Temp. Humidity Pressure Rain* Wind** Luminosity Snow
1787959909 23.33° C 89% 1013.5 hPa 0 mm - 1 W/m² -
1787959604 23.33° C 89% 1013.4 hPa 0 mm - 2 W/m² -
1787959300 23.89° C 87% 1013.4 hPa 0 mm - 4 W/m² -
1787958998 23.89° C 85% 1013.6 hPa 0 mm - 6 W/m² -
1787958694 23.89° C 85% 1013.3 hPa 0 mm - 9 W/m² -
1787958390 23.89° C 84% 1013.4 hPa 0 mm - 10 W/m² -
1787958086 24.44° C 84% 1013.3 hPa 0 mm - 12 W/m² -
1787957784 24.44° C 83% 1013.2 hPa 0 mm - 14 W/m² -
1787957479 25° C 82% 1013 hPa 0 mm - 17 W/m² -
1787957179 25° C 82% 1013.1 hPa 0 mm - 19 W/m² -
1787956874 25° C 80% 1013.1 hPa 0 mm - 21 W/m² -
1787956573 25° C 81% 1013.1 hPa 0 mm - 24 W/m² -
1787956268 25.56° C 81% 1013 hPa 0 mm - 29 W/m² -
1787955963 25.56° C 81% 1013.1 hPa 0 mm - 39 W/m² -
1787955659 25.56° C 80% 1013.2 hPa 0 mm - 48 W/m² -
1787955355 25.56° C 79% 1012.9 hPa 0 mm - 52 W/m² -
1787955054 26.11° C 79% 1013.3 hPa 0 mm - 51 W/m² -
1787954749 26.11° C 79% 1013.3 hPa 0 mm - 46 W/m² -
1787954444 26.11° C 79% 1013.2 hPa 0 mm - 61 W/m² -
1787954139 26.11° C 80% 1013 hPa 0 mm - 101 W/m² -
1787953833 25.56° C 79% 1013.1 hPa 0 mm - 103 W/m² -
1787953532 25.56° C 78% 1013 hPa 0 mm - 66 W/m² -
1787953232 25.56° C 79% 1013.1 hPa 0 mm - 51 W/m² -
1787952925 26.11° C 79% 1013.1 hPa 0 mm - 34 W/m² -
1787952620 26.11° C 80% 1013 hPa 0 mm - 47 W/m² -

* Rain latest hour (hover to see other rain measurements)
** Current wind speed in m/s (hover to see current wind gust speed)